USA 48

导读 | 星芒AI

USA-48 是一颗由美国国家侦察局(NRO)于1997年12月11日发射的侦察卫星,搭载于德尔塔II火箭。该卫星属于美国的军事成像卫星系统,主要用于执行高分辨率的光学侦察任务,支持情报、监视和侦察(ISR)活动。USA-48 的具体任务细节和性能参数未公开,但其发射标志着美国在轨道侦察能力上的持续发展。该卫星最终于2000年脱离轨道,结束其任务。

基本信息
目录编号:
20355
目录名称:
USA 48
国际标识:
1989-090B
轨道中心:
EARTH
卫星名称:
USA 48
卫星全名:
--
卫星状态:
在轨 (已飞行13124 天)
发射日期:
1989-11-23 UTC
国别 :
美国 (US)
星等 :
--
轨道信息
数据来源 国际轨道数据 AOE轨道数据
星历时间 2025-10-28T14:22:05+0800
1天前
查看轨道信息
2025-10-29T08:00:00+0800
7小时前
查看轨道信息
半长轴 42034.707km 42034.623km
偏心率 0.0283418 0.0283328
轨道倾角 17.064° 17.063°
近地点辐角 110.946° 110.972°
升交点赤经 343.008° 343.001°
平近点角 72.194° 338.609°
近地点 34465.232km 34465.529km
远地点 36847.912km 36847.447km
周期 1429.459分钟 1429.455分钟
每日圈数 1.007374 1.007377
详细信息
使用方式:
暂无
2D轨道图
3D轨道图
轨道高度分析图
轨道倾角分析图
轨道综合分析图
查看轨道综合分析图